Showing default

FLOCK 4BE 28, 60519

Orbit data source: Space-Track

FLOCK 4BE 28, 60519 is a payload satellite owned by Planet (US) in SSO that was launched on Fri, 16 Aug 2024 UTC via an FALCON 9 launch vehicle from the Air Force Western Test Range (AFWTR). Payload-class satellites include a variety of spacecraft equipped with specific instruments for various scientific and technological missions. These include communications satellites like Starlink; space stations such as the ISS; scientific satellites like the Hubble; Earth observation satellites from companies like Planet Labs, Umbra, and HawkEye 360; GPS; miniature CubeSats for education and research; and military/defense satellites.

Not visible in the next 10 days
Identifier
60519, 2024-149BD
Orbit
SSO
Country
Flag of USUS
Related business
Manufacturer
Planet
Mission
Operational Commercial Imaging
Bus & Motor
CUBESAT 3U, Unknown motor
Mass
5.7 kg wet, 5.7 kg dry
Launch date (UTC)
2024-08-16 (2 years ago)
Launch vehicle
FALCON 9
Launch site
Air Force Western Test Range (AFWTR)
Object type
Payload
Rocket body
Debris
Shape & HBR
Box + 2 Pan, 1.0 m
Radar Cross Section
0.072 m², Medium (>0.1 m² and < 1m²)

Expand to show TLE details & history
Last TLE update: 1 day ago

TLE from 1 day ago
0 FLOCK 4BE 28
1 60519U 24149BD  26143.77178933  .00014043  00000-0  31038-3 0  9992
2 60519  97.3741 229.1820 0004255  38.1279 322.0269 15.43945022 98673
Epoch: 2026-05-23T18:31Z
TLE epoch observation values (Epoch: 2026-05-23T18:31:22.598Z)
Latitude
-0.00005°
Longitude
69.95435°
Altitude
435.318 km
Speed
7.652 km/s
True Right ascension
15h 16m 43s
True Declination
0° 00' 00"
Sunlit
Object was in full shadow at epoch
Visualization orbit readout
Latitude
Unknown
Longitude
Unknown
Altitude
Unknown
Speed
Unknown
Apparent Right ascension
Unknown
Apparent Declination
Unknown
Sunlit
N/A
Visualization observer readout
Local Sidereal Time
13:42:35
Azimuth
Unknown
Elevation
Unknown
Doppler factor
Unknown
Orbital elements
Apogee altitude
434.31 km
Perigee altitude
428.515 km
Semi-major axis
6,809.549 km
Eccentricity
0.00043
Inclination
97.3741°
RAAN
229.182°
Arg. of periapsis
38.1279°
True anomaly
321.99689°
Mean anomaly
322.0269°
Eccentric anomaly
322.01189°
Mean motion
3.86247 °/min
Orbital period
93.2 mins
BSTAR
0.00031038
Loading maneuver chart data...
Computing Atmospheric mass density...
Loading historical data...
Loading historical data...
Loading historical data...
Loading historical data...
Loading historical data...
Loading historical data...
Loading historical data...

Documentation

Showing up to 5 results
|